SL-16 DEB, 22617

Orbit data source: Space-Track

SL-16 DEB, 22617 is space debris in LEO originally from a launch on Fri, 26 Mar 1993 UTC launched from the Tyuratam Missile And Space Complex (TTMTR). Debris objects in space refer to the collection of defunct objects orbiting the Earth. Examples of debris include non-operational satellites, rocket bodies, and fragments generated from explosions, collisions, or faulty payload assembly.

Loading next visibility...
SL-16 DEB details
Identifier
22617, 1993-016AB
Orbit
LEO
Last TLE update10 hours ago
Origin
Flag of CISRVSN RF (CIS)
ManufacturerUnknown
MissionSpacecraft
Bus & MotorUnknown
MassUnknown
Launch date (UTC)
1993-03-26 (32 years ago)
Launch vehicleUnknown
Launch site
Tyuratam Missile And Space Complex (TTMTR)
Object type
Payload
Rocket body
Debris
Shape & HBRUnknown
Radar Cross SectionSmall (<0.1 m²)

Expand to show TLE details & history

TLE from 10 hours ago
0 SL-16 DEB
1 22617U 93016AB  24361.08466935  .00002361  00000-0  17636-2 0  9991
2 22617  71.0003 111.0207 0136162 217.8401 316.7766 13.91458834605637
Epoch: 2024-12-26T02:01Z
Definitive object data (Epoch: 2024-12-26T02:01:55.431Z)
Latitude6.04315°
Longitude163.39265°
Altitude853.504 km
Speed7.463 km/s
True Right ascension19h 15m 46s
True Declination6° 00' 28"
Sunlit
Object was in daylight at TLE epoch
Visualization TLE readout
Latitude-8.41491°
Longitude167.49783°
Altitude839.653 km
Speed7.477 km/s
Apparent Right ascension21h 13m 52s
Apparent Declination-26° 30' 06"
Sunlit
Object is in daylight
Visualization observer readout
Local Sidereal Time11:48:49
Azimuth79.313° E
Elevation-55.259°
Doppler factor1
Orbital elements
Apogee altitude1,020.863 km
Perigee altitude822.077 km
Semi-major axis7,299.607 km
Eccentricity0.0136162
Inclination71.0003°
RAAN111.0207°
Arg. of periapsis217.8401°
True anomaly315.69469°
Mean anomaly316.7766°
Eccentric anomaly316.23699°
Mean motion3.48012 °/min
BSTAR0.0017636
Orbital period103.44 mins
Loading maneuver chart data...
Loading historical data...
Loading historical data...
Loading historical data...
Loading historical data...
Loading historical data...
Loading historical data...
Loading historical data...

SL-16 DEB Visibility forecast

Observer location: undefined°, undefined

Span
Click to sort rows by Start time (UTC) header in descending order
Start Az.
Max El. time (UTC)
Max El. Az.
Max El.
End time (UTC)
End Az.
8 mins2024-12-26 17:16:18.539Z3.668° NNE2024-12-26 17:20:18.539Z45.003° ENE19.564°2024-12-26 17:24:18.539Z92.642° ESE
10 mins2024-12-26 19:02:18.539Z329.295° NNW2024-12-26 19:07:18.539Z242.12° WSW42.217°2024-12-26 19:12:18.539Z171.434° S
10 mins2024-12-27 08:22:18.539Z178.31° S2024-12-27 08:27:18.539Z90.236° ESE39.316°2024-12-27 08:32:18.539Z33.589° NE
9 mins2024-12-27 10:09:18.539Z260.549° W2024-12-27 10:13:18.539Z309.526° NW24.519°2024-12-27 10:18:18.539Z1.39° NNE
|